PBO Station Position Time Series. Reference Frame : NAM14
Format Version,1.1.0
4-character ID,AC79
Station name,Montague2_AK2010
Begin Date, 2010-07-31
End Date, 2019-06-12
Release Date, 2019-10-03
Reference position, 59.9978702862 North Latitude, -147.4030461726 East Longitude, 287.76551 meters elevation,
Date, North (mm), East (mm), Vertical (mm), North Std. Deviation (mm), East Std. Deviation (mm),              Vertical Std. Deviation (mm), Quality,
2010-07-31,0.00, 0.00, 0.00, 2.30, 1.51, 7.18, repro,
2010-08-01,-0.95, 1.08, 3.25, 2.32, 1.51, 7.19, repro,
2010-08-02,-0.37, 1.74, 6.86, 2.32, 1.51, 7.24, repro,
2010-08-03,-0.48, 2.24, 0.37, 2.41, 1.55, 7.41, repro,
2010-08-04,0.69, -0.86, -4.35, 2.52, 1.65, 8.05, repro,
2010-08-05,0.44, 1.01, -1.00, 2.48, 1.66, 8.02, repro,
2010-08-06,0.69, 1.92, 6.64, 2.33, 1.51, 7.21, repro,
2010-08-07,-0.68, 2.15, 6.08, 2.31, 1.51, 7.18, repro,
2010-08-08,0.78, 1.24, -2.29, 2.32, 1.51, 7.17, repro,
2010-08-09,-1.10, 2.58, 4.17, 2.31, 1.51, 7.19, repro,
2010-08-10,1.54, 3.00, -7.02, 2.29, 1.50, 7.11, repro,
2010-08-11,-0.93, 2.19, -2.90, 2.30, 1.51, 7.19, repro,
2010-08-12,-0.27, 2.46, -0.20, 2.32, 1.51, 7.19, repro,
2010-08-13,1.12, 2.06, -0.97, 2.35, 1.54, 7.40, repro,
2010-08-14,0.13, 1.87, -2.68, 2.31, 1.51, 7.20, repro,
2010-08-15,-1.38, 2.21, 4.31, 2.31, 1.51, 7.18, repro,
2010-08-16,1.39, 2.78, -2.82, 2.34, 1.54, 7.39, repro,
2010-08-17,-1.03, 4.15, 0.19, 2.42, 1.60, 7.61, repro,
2010-08-18,-1.84, 2.22, 5.56, 2.30, 1.51, 7.18, repro,
2010-08-19,-1.59, 1.98, 11.18, 2.36, 1.53, 7.28, repro,
2010-08-20,-1.34, 2.26, 9.61, 2.29, 1.50, 7.11, repro,
2010-08-21,-1.81, 1.38, 11.56, 2.30, 1.51, 7.14, repro,
2010-08-22,-1.54, 1.67, 12.77, 2.30, 1.51, 7.17, repro,
2010-08-23,-1.33, 1.94, 4.04, 2.35, 1.54, 7.38, repro,
2010-08-24,-2.00, 0.69, 3.55, 2.44, 1.60, 7.37, repro,
2010-08-25,-1.43, 1.63, 8.24, 2.31, 1.50, 7.09, repro,
2010-08-26,-1.98, 0.95, 16.87, 2.35, 1.52, 7.21, repro,
2010-08-27,-2.08, 2.22, 9.32, 2.44, 1.56, 7.38, repro,
2010-08-28,-1.46, 1.32, 2.25, 2.30, 1.50, 7.10, repro,
2010-08-29,-0.91, 1.98, 3.30, 2.28, 1.49, 7.02, repro,
2010-08-30,-2.73, 0.63, 7.62, 2.28, 1.50, 7.04, repro,
2010-08-31,-3.16, 0.66, 10.55, 2.28, 1.50, 7.04, repro,
2010-09-01,-1.92, 2.96, 12.04, 2.27, 1.49, 7.02, repro,
2010-09-02,-3.68, 1.47, 8.47, 2.30, 1.50, 7.09, repro,
2010-09-03,-3.45, 1.19, 6.02, 2.29, 1.50, 7.08, repro,
2010-09-04,-1.71, 1.18, 7.98, 2.27, 1.49, 6.99, repro,
2010-09-05,-1.30, 1.62, 5.92, 2.25, 1.48, 6.98, repro,
2010-09-06,-2.27, 1.89, 15.36, 2.26, 1.50, 7.01, repro,
2010-09-07,-3.32, 0.37, 9.80, 2.28, 1.50, 7.06, repro,
2010-09-08,0.55, 2.03, 4.47, 2.29, 1.51, 7.10, repro,
2010-09-09,-0.98, 2.16, 11.70, 2.27, 1.50, 7.01, repro,
2010-09-10,-1.63, 1.47, 6.13, 2.27, 1.49, 6.99, repro,
2010-09-11,-1.38, 0.99, 1.54, 2.30, 1.52, 7.16, repro,
2010-09-12,-2.22, 0.80, 6.29, 2.28, 1.49, 7.05, repro,
2010-09-13,-2.62, 1.38, 2.83, 2.27, 1.50, 7.04, repro,
2010-09-14,-1.08, 1.00, 3.59, 2.28, 1.50, 7.05, repro,
2010-09-15,-0.28, 0.49, 7.21, 2.27, 1.49, 6.97, repro,
2010-09-16,-0.77, 0.64, 9.89, 2.25, 1.48, 6.92, repro,
2010-09-17,-0.45, 0.24, 5.66, 2.26, 1.49, 6.97, repro,
2010-09-18,-1.58, -0.10, 8.02, 2.28, 1.50, 7.03, repro,
2010-09-19,-1.39, 0.44, 3.79, 2.28, 1.50, 7.05, repro,
2010-09-20,-1.34, 0.67, 5.99, 2.27, 1.50, 7.00, repro,
2010-09-21,-1.83, 0.29, 12.88, 2.32, 1.52, 7.06, repro,
2010-09-22,-2.24, -0.20, 9.51, 2.31, 1.51, 7.05, repro,
2010-09-23,-1.88, 0.27, 10.21, 2.31, 1.52, 7.20, repro,
2010-09-24,-3.67, 0.08, 13.12, 2.27, 1.50, 7.01, repro,
2010-09-25,-2.94, -0.60, 12.11, 2.28, 1.49, 7.00, repro,
2010-09-26,-2.97, -0.22, 8.99, 2.27, 1.49, 6.99, repro,
2010-09-27,-3.33, -0.39, 9.78, 2.34, 1.55, 7.25, repro,
2010-09-28,-3.47, -0.14, 12.33, 2.37, 1.56, 7.34, repro,
2010-09-29,-1.69, -0.36, 6.45, 2.27, 1.50, 6.99, repro,
2010-09-30,0.54, -0.01, 7.08, 2.32, 1.53, 7.16, repro,
2010-10-01,0.43, 0.15, 8.14, 2.30, 1.51, 7.08, repro,
2010-10-02,-1.56, 2.42, 16.01, 2.24, 1.48, 6.90, repro,
2010-10-03,-0.47, 3.36, 13.97, 2.36, 1.53, 7.23, repro,
2010-10-04,-0.27, 0.99, 7.57, 2.32, 1.51, 7.14, repro,
2010-10-05,-1.75, 2.74, 16.54, 2.29, 1.50, 7.07, repro,
2010-10-06,-1.64, 2.15, 15.84, 2.28, 1.50, 7.05, repro,
2010-10-07,-1.34, 2.21, 7.42, 2.26, 1.49, 6.96, repro,
2010-10-08,-1.36, 2.67, 6.86, 2.25, 1.49, 6.95, repro,
2010-10-09,-3.40, 1.90, 7.94, 2.26, 1.49, 7.01, repro,
2010-10-10,-2.45, 2.49, 10.92, 2.31, 1.52, 7.17, repro,
2010-10-11,-2.29, 1.58, 9.06, 2.32, 1.52, 7.15, repro,
2010-10-12,-2.34, 2.41, 7.92, 2.27, 1.49, 6.96, repro,
2010-10-13,-1.97, 1.81, 8.64, 2.27, 1.48, 6.96, repro,
2010-10-14,-1.70, 1.46, 7.68, 2.32, 1.51, 7.07, repro,
2010-10-15,-0.22, 1.14, 7.04, 2.32, 1.53, 7.11, repro,
2010-10-16,-1.40, 0.67, 8.26, 2.28, 1.50, 7.01, repro,
2010-10-17,1.79, -0.02, 11.39, 2.27, 1.50, 7.00, repro,
2010-10-18,-0.28, 0.04, 6.93, 2.29, 1.52, 7.17, repro,
2010-10-19,-2.05, 1.92, 11.99, 2.27, 1.51, 7.13, repro,
2010-10-20,0.17, 1.04, 0.27, 2.27, 1.51, 7.16, repro,
2010-10-21,-1.08, 3.58, 7.31, 2.27, 1.51, 7.16, repro,
2010-10-22,-0.69, 2.93, 11.04, 2.23, 1.49, 6.95, repro,
2010-10-23,-0.52, 1.77, 8.59, 2.25, 1.49, 6.96, repro,
2010-10-24,-3.39, 2.18, 12.44, 2.24, 1.48, 6.93, repro,
2010-10-25,-0.91, 1.33, 7.75, 2.30, 1.53, 7.32, repro,
2010-10-26,-2.10, 2.09, 3.55, 2.26, 1.49, 6.98, repro,
2010-10-27,-1.43, 1.58, -1.51, 2.23, 1.49, 6.93, repro,
2010-10-28,0.10, 2.05, 4.35, 2.25, 1.52, 7.17, repro,
2010-10-29,-2.49, 3.32, 16.90, 2.24, 1.49, 6.96, repro,
2010-10-30,-1.35, 2.23, 19.11, 2.23, 1.49, 6.93, repro,
2010-10-31,-2.36, 2.11, 9.22, 2.31, 1.51, 7.06, repro,
2010-11-01,1.29, 1.99, 14.75, 2.32, 1.54, 7.29, repro,
2010-11-02,-1.63, 2.52, 7.90, 2.23, 1.49, 6.93, repro,
2010-11-03,1.37, 3.07, 7.76, 2.26, 1.51, 7.18, repro,
2010-11-04,0.13, 2.94, 8.38, 2.25, 1.50, 6.99, repro,
2010-11-05,-0.68, 3.73, 15.76, 2.25, 1.52, 7.16, repro,
2010-11-06,0.43, 2.79, 8.31, 2.23, 1.49, 6.95, repro,
2010-11-07,0.18, 1.67, 4.27, 2.25, 1.50, 7.01, repro,
2010-11-08,1.32, 3.17, 3.81, 2.24, 1.50, 6.98, repro,
2010-11-09,-0.33, 3.00, 1.37, 2.24, 1.51, 7.14, repro,
2010-11-10,-0.04, 3.24, -0.76, 2.29, 1.53, 7.05, repro,
2010-11-11,-0.06, 3.39, 3.96, 2.25, 1.52, 7.15, repro,
2010-11-12,-1.18, 1.53, 2.55, 2.22, 1.48, 6.94, repro,
2010-11-13,-1.13, 2.26, 5.94, 2.36, 1.58, 7.51, repro,
2010-11-14,-0.24, 2.18, -1.23, 2.31, 1.56, 7.31, repro,
2010-11-15,-1.27, 2.42, 0.01, 2.26, 1.52, 7.05, repro,
2010-11-16,-1.24, 1.68, -1.08, 2.33, 1.54, 7.24, repro,
2010-11-17,-2.06, 4.49, 1.60, 2.32, 1.53, 7.37, repro,
2010-11-18,0.51, 0.77, 0.22, 2.24, 1.50, 7.05, repro,
2010-11-19,1.55, 1.09, -1.53, 2.34, 1.57, 7.27, repro,
2010-11-20,-0.32, 0.97, -8.24, 2.24, 1.49, 7.03, repro,
2010-11-21,0.94, 0.42, -8.12, 2.33, 1.54, 7.45, repro,
2010-11-22,0.13, 0.54, -3.43, 2.31, 1.55, 7.43, repro,
2010-11-23,0.42, 1.08, 2.61, 2.23, 1.49, 7.03, repro,
2010-11-24,-1.00, 1.11, 3.39, 2.26, 1.50, 7.11, repro,
2010-11-25,-0.11, 1.86, 6.28, 2.24, 1.50, 7.00, repro,
2010-11-26,-0.48, 1.32, 1.90, 2.27, 1.51, 7.19, repro,
2010-11-27,-1.45, 1.53, 4.78, 2.28, 1.52, 7.25, repro,
2010-11-28,-0.54, 1.83, 11.21, 2.24, 1.49, 7.01, repro,
2010-11-29,-3.02, 2.68, 11.87, 2.26, 1.49, 7.07, repro,
2010-11-30,-3.40, 2.67, 12.20, 2.24, 1.49, 6.97, repro,
2010-12-01,-2.58, 0.85, 5.92, 2.24, 1.48, 6.96, repro,
2010-12-02,-0.02, 0.11, 1.98, 2.26, 1.49, 7.07, repro,
2010-12-03,0.13, 0.01, -2.93, 2.26, 1.49, 7.06, repro,
2010-12-04,0.26, 1.24, -0.58, 2.25, 1.49, 7.03, repro,
2010-12-05,-0.76, 0.48, 0.90, 2.25, 1.50, 7.01, repro,
2010-12-06,-0.76, -2.32, -3.26, 2.24, 1.49, 6.99, repro,
2010-12-07,0.33, 0.11, -4.11, 2.23, 1.50, 6.97, repro,
2010-12-08,-2.20, 1.31, 1.45, 2.27, 1.50, 7.13, repro,
2010-12-09,-0.19, 0.37, 4.87, 2.24, 1.50, 7.06, repro,
2010-12-10,1.93, -0.82, 2.24, 2.31, 1.54, 7.31, repro,
2010-12-11,-1.45, -0.90, 3.55, 2.29, 1.53, 7.16, repro,
2010-12-12,-0.56, -1.69, 2.68, 2.24, 1.50, 7.02, repro,
2010-12-13,-0.15, -0.12, 4.54, 2.26, 1.50, 7.09, repro,
2010-12-14,-0.78, 1.32, 10.68, 2.30, 1.52, 7.29, repro,
2010-12-15,-1.78, 2.08, 5.59, 2.28, 1.52, 7.12, repro,
2010-12-16,-0.36, 0.18, -8.48, 2.23, 1.50, 7.02, repro,
2010-12-17,-0.35, 0.88, -4.95, 2.29, 1.54, 7.17, repro,
2010-12-18,2.01, 0.49, -3.77, 2.23, 1.50, 7.01, repro,
2010-12-19,0.21, 0.10, -5.14, 2.26, 1.50, 7.05, repro,
2010-12-20,-0.54, -0.56, 3.70, 2.29, 1.52, 7.13, repro,
2010-12-21,0.33, -0.15, 2.31, 2.29, 1.52, 7.12, repro,
2010-12-22,0.11, 0.29, -3.71, 2.28, 1.52, 7.10, repro,
2010-12-23,0.08, 0.53, -5.22, 2.27, 1.52, 7.05, repro,
2010-12-24,-0.20, -1.06, 2.46, 2.26, 1.49, 7.01, repro,
2010-12-25,0.87, -1.29, -2.26, 2.25, 1.50, 7.03, repro,
2010-12-26,1.05, -0.45, 1.04, 2.26, 1.50, 7.05, repro,
2010-12-27,-0.98, -1.18, 6.88, 2.25, 1.49, 7.00, repro,
2010-12-28,-0.20, -1.20, 7.72, 2.34, 1.54, 7.26, repro,
2010-12-29,-1.02, -1.70, 4.46, 2.40, 1.56, 7.41, repro,
2010-12-30,0.60, -1.69, 4.88, 2.35, 1.54, 7.22, repro,
2010-12-31,2.40, -2.76, -1.91, 2.26, 1.51, 7.09, repro,
2011-01-01,1.50, -0.09, 4.08, 2.32, 1.53, 7.20, repro,
2011-01-02,4.11, -0.40, 0.16, 2.32, 1.53, 7.22, repro,
2011-01-03,2.79, -0.78, 2.15, 2.32, 1.53, 7.17, repro,
2011-01-04,2.61, 0.71, 3.18, 2.37, 1.57, 7.27, repro,
2011-01-05,1.56, 1.60, 6.25, 2.26, 1.50, 7.02, repro,
2011-01-06,1.35, 1.02, -0.12, 2.32, 1.53, 7.14, repro,
2011-01-07,1.73, 0.34, -5.33, 2.33, 1.52, 7.23, repro,
2011-01-08,2.61, 0.37, -5.81, 2.33, 1.52, 7.19, repro,
2011-01-09,2.22, -0.02, -8.02, 2.26, 1.48, 7.02, repro,
2011-01-10,0.08, -1.19, -10.73, 2.36, 1.55, 7.24, repro,
2011-01-11,0.53, -0.41, -4.97, 2.41, 1.55, 7.30, repro,
2011-01-12,2.91, -0.96, -4.88, 2.24, 1.48, 7.01, repro,
2011-01-13,1.76, -0.51, -7.53, 2.32, 1.52, 7.18, repro,
2011-01-14,-0.45, -0.48, -0.64, 2.33, 1.51, 7.14, repro,
2011-01-15,-0.20, -0.55, -0.54, 2.32, 1.50, 7.09, repro,
2011-01-16,-0.86, -0.83, 2.99, 2.24, 1.48, 6.97, repro,
2011-01-17,-0.04, -1.36, 2.51, 2.23, 1.47, 6.92, repro,
2011-01-18,0.15, -0.86, -3.14, 2.29, 1.52, 7.13, repro,
2011-01-19,1.04, -1.46, 0.70, 2.32, 1.52, 7.18, repro,
2011-01-20,1.06, -1.32, 6.54, 2.27, 1.49, 7.07, repro,
2011-01-21,1.84, -2.76, 8.86, 2.26, 1.49, 7.04, repro,
2011-01-22,-0.65, -2.42, 10.48, 2.31, 1.51, 7.08, repro,
2011-01-23,1.04, -0.41, 8.53, 2.25, 1.48, 6.99, repro,
2011-01-24,1.35, -0.41, 6.96, 2.26, 1.49, 7.05, repro,
2011-01-25,0.77, -1.05, 5.47, 2.26, 1.49, 7.06, repro,
2011-01-26,-0.09, -1.60, 5.88, 2.40, 1.57, 7.60, repro,
2011-01-27,1.24, -4.04, 0.34, 2.25, 1.49, 6.99, repro,
2011-01-28,0.91, -2.83, -9.05, 2.25, 1.49, 7.01, repro,
2011-01-29,1.43, -2.57, -1.60, 2.25, 1.49, 7.01, repro,
2011-01-30,0.29, -0.31, 1.04, 2.25, 1.48, 7.03, repro,
2011-01-31,3.20, -2.16, 3.66, 2.27, 1.50, 7.12, repro,
2011-02-01,1.12, -1.16, 0.57, 2.30, 1.53, 7.26, repro,
2011-02-02,2.18, -1.02, 1.98, 2.25, 1.49, 7.00, repro,
2011-02-03,0.69, -0.70, 4.05, 2.26, 1.49, 7.02, repro,
2011-02-04,-1.90, 0.06, -2.70, 2.30, 1.53, 7.20, repro,
2011-02-05,-1.22, -1.10, 0.10, 2.25, 1.49, 7.02, repro,
2011-02-06,0.46, 0.21, -4.36, 2.27, 1.50, 7.09, repro,
2011-02-07,0.44, -0.55, -2.57, 2.26, 1.49, 7.04, repro,
2011-02-08,2.26, -2.51, -3.02, 2.25, 1.49, 7.04, repro,
2011-02-09,-0.84, -0.37, 3.08, 2.25, 1.49, 7.04, repro,
2011-02-10,0.06, -1.84, 0.91, 2.23, 1.48, 7.00, repro,
2011-02-11,-0.09, -3.00, 3.35, 2.23, 1.48, 7.00, repro,
2011-02-12,-6.96, -0.17, -0.55, 2.41, 1.56, 7.41, repro,
2011-02-13,-4.90, -0.03, -4.91, 2.27, 1.51, 7.14, repro,
2011-02-14,-4.25, 0.46, -12.56, 2.24, 1.49, 6.97, repro,
2011-02-15,2.56, 1.70, -2.55, 2.27, 1.52, 7.16, repro,
2011-02-16,-0.58, -0.69, -1.94, 2.27, 1.51, 7.17, repro,
2011-02-17,-0.90, -0.22, -0.62, 2.24, 1.49, 7.02, repro,
2011-02-18,-0.27, -2.12, 0.26, 2.28, 1.51, 7.14, repro,
2011-02-19,-0.55, -3.02, -0.70, 2.27, 1.50, 7.06, repro,
2011-02-20,-0.13, -3.81, -2.14, 2.26, 1.49, 7.00, repro,
2011-02-21,-1.11, -2.94, -6.63, 2.22, 1.48, 6.96, repro,
2011-02-22,-0.61, -2.11, -24.24, 2.31, 1.50, 7.19, repro,
2011-02-23,-0.16, -0.67, -13.54, 2.35, 1.52, 7.33, repro,
2011-02-24,-0.15, -2.51, -10.44, 2.26, 1.49, 7.05, repro,
2011-02-25,0.20, -2.41, -7.40, 2.25, 1.49, 7.02, repro,
2011-02-26,4.19, -5.87, -4.71, 2.21, 1.48, 6.93, repro,
2011-02-27,2.48, -0.89, -11.69, 2.23, 1.49, 6.97, repro,
2011-02-28,3.07, -1.55, -10.28, 2.27, 1.53, 7.10, repro,
2011-03-01,0.44, -2.02, -10.71, 2.32, 1.52, 7.24, repro,
2011-03-02,-1.94, -1.92, -1.72, 2.26, 1.50, 7.06, repro,
2011-03-03,-1.20, -1.68, -6.68, 2.23, 1.48, 6.96, repro,
2011-03-04,-0.46, -2.28, -7.23, 2.21, 1.48, 6.92, repro,
2011-03-05,-0.91, -2.01, -10.32, 2.22, 1.48, 6.95, repro,
2011-03-06,0.26, -2.79, -12.78, 2.24, 1.49, 7.01, repro,
2011-03-07,0.28, -2.54, -5.80, 2.27, 1.49, 7.05, repro,
2011-03-08,-1.24, -2.25, -6.04, 2.24, 1.49, 7.03, repro,
2011-03-09,-0.80, -2.00, -6.25, 2.23, 1.48, 6.94, repro,
2011-03-10,-2.06, -2.38, -3.59, 2.25, 1.50, 7.02, repro,
2011-03-11,-2.22, -1.81, -3.87, 2.26, 1.50, 7.07, repro,
2011-03-12,-0.86, -2.85, -4.57, 2.28, 1.50, 7.14, repro,
2011-03-13,-2.75, -2.07, -3.90, 2.26, 1.51, 7.06, repro,
2011-03-14,-1.39, -2.49, -0.66, 2.34, 1.55, 7.22, repro,
2011-03-15,-2.86, -3.06, -2.26, 2.23, 1.49, 6.99, repro,
2011-03-16,-1.39, -5.12, 2.76, 2.37, 1.55, 7.33, repro,
2011-03-17,-1.47, -3.69, -4.47, 2.29, 1.52, 7.19, repro,
2011-03-18,-0.64, -3.81, -7.17, 2.30, 1.54, 7.21, repro,
2011-03-19,-0.93, -3.00, -5.06, 2.28, 1.54, 7.28, repro,
2011-03-20,-0.55, -2.97, -5.60, 2.24, 1.49, 6.99, repro,
2011-03-21,-1.57, -3.94, -2.68, 2.36, 1.58, 7.33, repro,
2011-03-22,-0.92, -4.24, -0.90, 2.36, 1.56, 7.30, repro,
2011-03-23,-1.52, -3.35, 2.07, 2.75, 1.90, 8.70, repro,
2011-03-24,1.36, -5.32, -6.81, 2.24, 1.51, 7.02, repro,
2011-03-25,-0.38, -4.55, -0.62, 2.24, 1.50, 7.04, repro,
2011-03-26,-1.07, -4.39, -5.56, 2.29, 1.53, 7.10, repro,
2011-03-27,-1.80, -3.83, -2.27, 2.23, 1.48, 6.95, repro,
2011-03-28,-1.13, -4.43, -3.47, 2.24, 1.48, 6.99, repro,
2011-03-29,0.94, -3.88, -3.46, 2.23, 1.48, 7.01, repro,
2011-03-30,0.26, -5.40, 3.63, 2.23, 1.49, 7.04, repro,
2011-03-31,-0.55, -3.72, 2.96, 2.25, 1.50, 7.07, repro,
2011-04-01,-0.66, -2.42, -3.03, 2.23, 1.48, 6.94, repro,
2011-04-02,-2.06, -2.11, -1.35, 2.27, 1.50, 7.09, repro,
2011-04-03,-0.04, -3.34, 1.11, 2.23, 1.49, 6.95, repro,
2011-04-04,-0.50, -3.93, 1.36, 2.24, 1.50, 7.04, repro,
2011-04-05,-0.28, -1.87, 2.20, 2.31, 1.54, 7.14, repro,
2011-04-06,-2.16, -1.43, 1.09, 2.39, 1.58, 7.33, repro,
2011-04-07,0.80, -1.15, -0.54, 2.23, 1.48, 6.96, repro,
2011-04-08,-0.14, -1.64, -1.84, 2.23, 1.49, 7.00, repro,
2011-04-09,-1.34, -3.69, 3.97, 2.25, 1.50, 7.10, repro,
2011-04-10,-0.79, -3.31, 1.23, 2.30, 1.51, 7.17, repro,
2011-04-11,-0.28, -2.45, 0.26, 2.37, 1.53, 7.28, repro,
2011-04-12,-0.20, -3.28, -0.17, 2.42, 1.56, 7.44, repro,
2011-04-13,-0.79, -2.36, -3.00, 2.22, 1.48, 6.95, repro,
2011-04-14,1.48, -3.55, -8.31, 2.23, 1.49, 7.03, repro,
2011-04-15,1.22, -3.38, -8.83, 2.23, 1.51, 7.06, repro,
2011-04-16,1.65, -3.18, -5.27, 2.23, 1.50, 7.03, repro,
2011-04-17,-0.05, -3.29, -6.09, 2.23, 1.49, 6.98, repro,
2011-04-18,0.05, -2.64, -6.82, 2.23, 1.48, 6.97, repro,
2011-04-19,-0.17, -3.41, -8.31, 2.22, 1.48, 6.96, repro,
2011-04-20,-0.49, -2.50, -2.20, 2.22, 1.50, 7.02, repro,
2011-04-21,0.04, -2.72, -0.01, 2.26, 1.53, 7.33, repro,
2011-04-22,0.53, -3.18, -7.63, 2.23, 1.49, 7.02, repro,
2011-04-23,1.92, -2.94, 0.40, 2.22, 1.48, 6.94, repro,
2011-04-24,3.37, -3.88, -4.85, 2.28, 1.51, 7.01, repro,
2011-04-25,0.43, -0.63, 0.88, 2.22, 1.48, 6.97, repro,
2011-04-26,1.33, -0.85, 3.45, 2.24, 1.49, 7.06, repro,
2011-04-27,1.08, -0.81, 0.36, 2.24, 1.50, 7.03, repro,
2011-04-28,0.22, -0.60, -1.83, 2.22, 1.49, 6.97, repro,
2011-04-29,1.10, -1.28, -6.98, 2.21, 1.48, 6.91, repro,
2011-04-30,3.60, -2.24, -11.13, 2.24, 1.49, 6.98, repro,
2011-05-01,1.13, -0.05, -8.87, 2.33, 1.54, 7.22, repro,
2011-05-02,0.86, -0.18, -7.14, 2.26, 1.51, 7.11, repro,
2011-05-03,1.07, -0.68, -8.71, 2.29, 1.52, 7.10, repro,
2011-05-04,1.28, -0.52, -8.38, 2.28, 1.50, 7.00, repro,
2011-05-05,1.29, -0.34, -5.64, 2.24, 1.51, 7.15, repro,
2011-05-06,0.46, -0.28, -6.03, 2.24, 1.51, 7.19, repro,
2011-05-07,2.03, 0.36, -4.61, 2.28, 1.52, 7.17, repro,
2011-05-08,0.98, 0.33, -8.06, 2.28, 1.53, 7.18, repro,
2011-05-09,1.14, 0.49, -3.95, 2.28, 1.51, 7.12, repro,
2011-05-10,0.13, -0.17, -2.61, 2.26, 1.50, 7.04, repro,
2011-05-11,-0.44, 0.17, -1.85, 2.24, 1.49, 7.02, repro,
2011-05-12,0.43, -0.32, -5.79, 2.22, 1.49, 7.01, repro,
2011-05-13,0.70, -0.69, -3.91, 2.24, 1.49, 7.03, repro,
2011-05-14,0.77, -0.10, -10.56, 2.29, 1.52, 7.14, repro,
2011-05-15,-0.58, 0.93, -2.51, 2.28, 1.51, 7.07, repro,
2011-05-16,-0.22, 0.55, 2.58, 2.28, 1.52, 7.11, repro,
2011-05-17,0.01, 0.14, -5.06, 2.28, 1.52, 7.14, repro,
2011-05-18,1.66, -1.05, -6.76, 2.28, 1.52, 7.12, repro,
2011-05-19,2.92, -1.01, -15.31, 2.31, 1.54, 7.19, repro,
2011-05-20,0.39, 1.68, -0.99, 2.29, 1.52, 7.12, repro,
2011-05-21,0.80, 0.11, -1.12, 2.33, 1.55, 7.31, repro,
2011-05-22,2.15, -0.37, -5.84, 2.28, 1.53, 7.16, repro,
2011-05-23,2.02, 0.94, -4.93, 2.26, 1.52, 7.12, repro,
2011-05-24,1.64, 0.03, -3.52, 2.26, 1.52, 7.08, repro,
2011-05-25,1.27, 0.70, -2.27, 2.27, 1.51, 7.08, repro,
2011-05-26,0.15, -0.28, -1.47, 2.29, 1.52, 7.13, repro,
2011-05-27,-0.08, 0.15, -1.68, 2.28, 1.52, 7.12, repro,
2011-05-28,-1.77, -0.19, -5.59, 2.65, 1.75, 7.90, repro,
2011-05-29,0.10, 0.04, 0.49, 2.29, 1.53, 7.17, repro,
2011-05-30,1.11, 0.16, -3.11, 2.27, 1.52, 7.09, repro,
2011-05-31,0.64, -0.30, -1.93, 2.28, 1.52, 7.11, repro,
2011-06-01,1.24, -0.49, -2.56, 2.29, 1.51, 7.12, repro,
2011-06-02,-0.76, 0.02, -0.17, 2.28, 1.53, 7.14, repro,
2011-06-03,0.19, -0.49, -4.25, 2.25, 1.52, 7.06, repro,
2011-06-04,0.88, 0.13, -3.89, 2.25, 1.52, 7.04, repro,
2011-06-05,0.48, 0.78, -2.88, 2.30, 1.54, 7.21, repro,
2011-06-06,0.12, 0.41, -8.90, 2.29, 1.52, 7.12, repro,
2011-06-07,0.12, 0.64, -4.61, 2.27, 1.52, 7.10, repro,
2011-06-08,-0.62, 0.18, -4.63, 2.28, 1.52, 7.07, repro,
2011-06-09,-0.66, 0.53, -0.37, 2.25, 1.52, 7.04, repro,
2011-06-10,-0.52, 0.18, 0.42, 2.30, 1.53, 7.21, repro,
2011-06-11,-0.51, -0.09, 0.31, 2.29, 1.52, 7.13, repro,
2011-06-12,-0.97, -0.63, 3.19, 2.44, 1.65, 7.50, repro,
2011-06-13,-1.85, 0.10, 0.96, 2.27, 1.52, 7.07, repro,
2011-06-14,-0.87, 0.19, 0.19, 2.26, 1.52, 7.06, repro,
2011-06-15,-1.64, -0.11, 0.76, 2.28, 1.53, 7.16, repro,
2011-06-16,-0.95, -0.32, -6.81, 2.30, 1.54, 7.19, repro,
2011-06-17,-1.62, -0.41, -6.08, 2.28, 1.53, 7.13, repro,
2011-06-18,-1.87, -0.60, 0.28, 2.25, 1.51, 7.03, repro,
2011-06-19,-0.67, -0.04, 1.87, 2.27, 1.53, 7.10, repro,
2011-06-20,0.56, 0.24, -2.05, 2.30, 1.58, 7.38, repro,
2011-06-21,-0.85, -0.36, 1.17, 2.27, 1.54, 7.16, repro,
2011-06-22,-0.50, -1.56, 0.19, 2.28, 1.52, 7.11, repro,
2011-06-23,-0.17, -0.23, -3.92, 2.28, 1.51, 7.06, repro,
2011-06-24,-0.66, -0.27, -0.00, 2.33, 1.59, 7.57, repro,
2011-06-25,0.02, 0.49, 0.63, 2.35, 1.58, 7.31, repro,
2011-06-26,0.22, -1.07, 0.66, 2.27, 1.54, 7.14, repro,
2011-06-27,-0.55, -0.10, -2.40, 2.28, 1.53, 7.14, repro,
2011-06-28,-1.09, -0.50, 2.67, 2.27, 1.52, 7.09, repro,
2011-06-29,-1.89, -0.03, 5.28, 2.25, 1.51, 7.01, repro,
2011-06-30,-2.32, -0.59, 8.46, 2.27, 1.52, 7.13, repro,
2011-07-01,-1.49, -0.56, 6.93, 2.28, 1.54, 7.20, repro,
2011-07-02,-0.89, -0.38, 3.06, 2.27, 1.53, 7.11, repro,
2011-07-03,-0.05, -0.24, 2.21, 2.28, 1.52, 7.10, repro,
2011-07-04,-0.37, -0.80, 2.95, 2.27, 1.51, 7.05, repro,
2011-07-05,-1.98, -0.32, -3.80, 2.29, 1.54, 7.33, repro,
2011-07-06,-0.46, -0.27, -2.75, 2.27, 1.55, 7.28, repro,
2011-07-07,0.95, -1.43, -5.86, 2.28, 1.55, 7.28, repro,
2011-07-08,-2.76, -0.23, 0.92, 2.29, 1.55, 7.28, repro,
2011-07-09,-1.32, -1.37, -0.13, 2.29, 1.53, 7.23, repro,
2011-07-10,-2.10, -1.10, -1.54, 2.30, 1.53, 7.30, repro,
2011-07-11,-2.65, -0.87, -4.41, 2.29, 1.55, 7.30, repro,
2011-07-12,-1.99, -3.19, -8.70, 2.27, 1.54, 7.24, repro,
2011-07-13,-1.79, -2.92, -5.49, 2.29, 1.56, 7.29, repro,
2011-07-14,-3.30, -1.29, 5.04, 2.29, 1.55, 7.27, repro,
2011-07-15,-2.87, -0.62, 7.11, 2.38, 1.58, 7.47, repro,
2011-07-16,-1.55, -2.10, 1.61, 2.29, 1.54, 7.27, repro,
2011-07-17,-1.90, -1.56, 1.87, 2.28, 1.54, 7.26, repro,
2011-07-18,-2.19, -2.39, 6.82, 2.27, 1.54, 7.24, repro,
2011-07-19,-2.52, -0.86, 4.87, 2.28, 1.55, 7.25, repro,
2011-07-20,-2.78, -1.63, 6.39, 2.31, 1.54, 7.32, repro,
2011-07-21,-2.48, -1.23, 3.56, 2.31, 1.54, 7.36, repro,
2011-07-22,-1.30, -2.40, 4.11, 2.29, 1.54, 7.27, repro,
2011-07-23,-1.81, -1.71, 1.50, 2.27, 1.54, 7.23, repro,
2011-07-24,-1.12, -0.92, -0.52, 2.27, 1.54, 7.19, repro,
2011-07-25,-1.77, -1.54, 3.29, 2.29, 1.54, 7.26, repro,
2011-07-26,-1.88, -0.90, 4.98, 2.30, 1.54, 7.31, repro,
2011-07-27,-1.94, -1.28, 1.76, 2.37, 1.58, 7.46, repro,
2011-07-28,-3.63, -0.53, -3.20, 2.34, 1.56, 7.40, repro,
2011-07-29,-4.29, -0.27, -2.04, 2.27, 1.55, 7.25, repro,
2011-07-30,-3.88, -0.22, 2.38, 2.28, 1.54, 7.22, repro,
2011-07-31,-3.63, -0.84, 1.85, 2.29, 1.54, 7.27, repro,
2011-08-01,-2.21, -0.97, 3.16, 2.29, 1.54, 7.29, repro,
2011-08-02,-1.71, -0.26, 2.10, 2.28, 1.54, 7.28, repro,
2011-08-03,0.29, -1.09, 7.77, 2.35, 1.59, 7.53, repro,
2011-08-04,-1.22, 2.68, 7.17, 2.27, 1.55, 7.25, repro,
2011-08-05,-0.64, 3.13, 3.76, 2.28, 1.55, 7.30, repro,
2011-08-06,-2.27, 1.73, 6.69, 2.30, 1.55, 7.32, repro,
2011-08-07,-0.57, 2.84, 6.41, 2.27, 1.54, 7.28, repro,
2011-08-08,-1.52, 2.67, 12.99, 2.28, 1.55, 7.30, repro,
2011-08-09,-2.29, 2.40, 8.26, 2.28, 1.55, 7.30, repro,
2011-08-10,-2.09, 1.72, 6.79, 2.32, 1.54, 7.31, repro,
2011-08-11,-3.27, 1.43, 4.92, 2.39, 1.61, 7.49, repro,
2011-08-12,-1.69, 1.75, 7.76, 2.38, 1.60, 7.50, repro,
2011-08-13,-2.61, 0.32, 11.27, 2.33, 1.57, 7.44, repro,
2011-08-14,-2.15, 0.66, 13.15, 2.35, 1.58, 7.50, repro,
2011-08-15,-1.29, 1.41, 9.55, 2.32, 1.56, 7.35, repro,
2011-08-16,-3.20, 1.88, 8.67, 2.32, 1.55, 7.33, repro,
2011-08-17,-2.10, 1.70, 5.85, 2.30, 1.55, 7.35, repro,
2011-08-18,-2.06, 1.37, 7.74, 2.31, 1.55, 7.35, repro,
2011-08-19,-3.19, 1.35, 10.20, 2.31, 1.56, 7.41, repro,
2011-08-20,-0.02, 2.96, 16.84, 2.66, 1.80, 8.60, repro,
2011-08-21,-2.59, 4.06, 18.46, 2.30, 1.55, 7.33, repro,
2011-08-22,-1.02, 2.83, 16.68, 2.30, 1.54, 7.30, repro,
2011-08-23,-1.62, 2.31, 14.46, 2.41, 1.59, 7.59, repro,
2011-08-24,-1.89, 1.97, 8.99, 2.31, 1.56, 7.38, repro,
2011-08-25,-2.48, 2.18, 11.18, 2.31, 1.56, 7.36, repro,
2011-08-26,-1.54, 2.41, 8.07, 2.34, 1.59, 7.58, repro,
2011-08-27,-1.13, 1.67, 6.35, 2.33, 1.56, 7.38, repro,
2011-08-28,-1.11, 2.75, 8.31, 2.33, 1.56, 7.40, repro,
2011-08-29,-1.59, 2.42, 8.16, 2.35, 1.57, 7.48, repro,
2011-08-30,-1.75, 2.36, 10.40, 2.39, 1.61, 7.59, repro,
2011-08-31,-1.16, 2.23, 12.36, 2.38, 1.63, 7.54, repro,
2011-09-01,-1.01, 2.54, 9.60, 2.28, 1.56, 7.47, repro,
2011-09-02,-0.86, 1.85, 6.39, 2.30, 1.56, 7.52, repro,
2011-09-03,-0.24, 1.93, 4.01, 2.30, 1.53, 7.30, repro,
2011-09-04,-1.50, 3.10, 12.64, 2.29, 1.54, 7.34, repro,
2011-09-05,-0.96, 2.05, 17.68, 2.29, 1.54, 7.31, repro,
2011-09-06,-1.04, 4.97, 18.40, 2.28, 1.53, 7.25, repro,
2011-09-07,-0.17, 3.24, 12.94, 2.31, 1.56, 7.37, repro,
2011-09-08,1.24, 3.36, 10.31, 2.32, 1.55, 7.35, repro,
2011-09-09,-1.07, 2.96, 14.83, 2.39, 1.57, 7.52, repro,
2011-09-10,-0.21, 3.48, 8.30, 2.38, 1.59, 7.67, repro,
2011-09-11,0.22, 1.92, 5.68, 2.34, 1.56, 7.39, repro,
2011-09-12,-0.95, 1.73, 6.64, 2.33, 1.57, 7.40, repro,
2011-09-13,-2.24, 2.66, 12.54, 2.33, 1.56, 7.38, repro,
2011-09-14,-1.90, 1.92, 10.86, 2.34, 1.54, 7.41, repro,
2011-09-15,1.42, 1.94, 13.66, 2.30, 1.54, 7.31, repro,
2011-09-16,1.62, -0.70, 3.55, 2.36, 1.59, 7.53, repro,
2011-09-17,0.03, 1.47, 12.06, 2.45, 1.63, 7.74, repro,
2011-09-18,-3.14, 2.93, 17.88, 2.29, 1.54, 7.27, repro,
2011-09-19,-1.35, 2.90, 20.44, 2.33, 1.56, 7.40, repro,
2011-09-20,-0.20, 3.81, 19.81, 2.38, 1.58, 7.51, repro,
2011-09-21,-3.16, 3.99, 24.98, 2.33, 1.54, 7.40, repro,
2011-09-22,-2.47, 3.19, 19.14, 2.28, 1.54, 7.27, repro,
2011-09-23,-2.33, 3.33, 13.06, 2.30, 1.55, 7.33, repro,
2011-09-24,-1.18, 2.74, 14.69, 2.28, 1.54, 7.26, repro,
2011-09-25,-2.07, 2.62, 12.28, 2.29, 1.53, 7.27, repro,